CAPE
110 151 190 204 248 302 275 326 379 431 427 472 542 464 416 406 394 319 225 502 490 631 670 636 678 666 458 470 659 558 560 369 451 437 195 278 339 428 475 271 95 0 0
181 184 200 223 246 287 350 461 491 581 645 666 615 587 531 532 522 575 614 657 607 472 438 519 531 607 529 467 557 597 586 564 515 417 322 352 340 115 127 73 18 0 0
289 309 265 321 303 316 356 414 447 441 658 751 784 685 538 527 577 661 772 678 612 590 565 531 482 562 553 515 585 584 512 498 468 451 414 398 354 247 52 3 1 2 2
572 522 503 512 454 574 615 591 638 651 608 618 551 459 326 300 378 528 526 461 518 594 602 588 578 549 574 605 585 539 475 441 551 583 573 640 542 445 224 18 1 4 2
683 785 798 919 700 1003 1064 1044 1033 918 780 623 319 57 7 0 15 74 307 380 384 390 541 619 639 639 541 612 649 597 553 552 521 635 590 628 517 390 385 34 1 2 3
803 839 973 1079 1205 1225 1155 1170 1137 1014 703 389 282 146 11 11 0 0 18 49 36 161 387 502 694 651 603 512 419 542 631 543 521 560 672 638 593 478 343 119 2 2 1
858 1113 1256 1117 476 381 555 698 664 583 500 575 421 302 211 134 52 3 7 0 4 9 63 364 599 803 696 734 506 436 398 452 569 583 473 544 615 478 398 178 45 0 0
866 827 738 360 12 0 24 61 14 0 0 0 0 0 0 0 0 0 0 1 0 29 151 236 484 489 621 688 731 595 617 551 481 513 659 727 586 484 354 334 124 1 0
316 266 38 7 0 0 0 0 0 0 0 0 0 0 0 0 0 0 0 0 0 0 1 126 389 472 589 609 499 522 497 498 272 339 452 510 410 240 182 51 11 0 0
0 0 0 0 0 0 0 0 0 0 0 0 0 0 0 0 0 0 0 0 0 0 0 0 9 204 344 349 404 349 151 329 260 165 107 50 50 13 1 56 13 58 0
0 0 0 0 0 0 0 0 0 0 0 0 0 0 0 0 0 0 1 2 1 0 0 0 0 0 12 81 133 300 264 377 109 76 27 0 1 1 1 0 1 3 0
0 0 0 0 0 0 0 0 0 0 0 0 0 0 0 0 0 0 0 3 3 5 2 0 1 0 37 98 94 141 128 46 7 1 0 1 0 0 4 4 2 0 0
0 0 0 0 0 0 0 0 0 0 0 0 0 0 0 0 0 1 3 3 3 4 3 2 1 0 0 67 83 150 7 5 1 1 2 3 3 5 3 0 0 0 1
0 0 0 0 0 0 0 0 0 0 0 0 0 0 0 0 1 2 3 3 5 6 3 3 2 0 0 2 37 24 2 5 9 4 4 5 4 4 2 2 2 3 1
0 0 0 0 0 0 0 0 0 0 0 0 0 0 0 0 0 0 1 0 2 2 0 2 3 2 3 0 0 3 4 3 3 5 5 5 4 2 1 0 0 0 0
0 0 0 0 0 0 0 0 0 0 0 0 0 0 0 0 0 0 0 0 0 0 1 4 3 1 0 0 1 2 3 4 5 4 3 3 2 0 0 0 0 0 0
0 0 0 0 0 0 0 0 0 0 0 0 0 0 0 0 0 0 0 0 0 0 1 2 2 2 3 3 4 5 5 4 2 2 2 0 2 0 0 0 0 0 0
0 0 0 0 0 0 0 0 0 0 0 0 0 0 0 0 0 0 0 0 1 1 3 3 2 2 3 4 3 4 3 2 2 0 0 0 0 0 0 0 0 0 0
0 0 0 0 0 0 0 0 0 0 0 0 0 0 0 0 0 0 0 2 2 2 2 2 1 1 1 2 2 2 1 1 0 0 0 0 0 0 0 0 0 0 0
0 0 0 0 0 0 0 0 0 0 0 0 0 0 0 0 0 0 0 0 0 1 2 1 1 1 0 1 0 0 0 0 0 0 0 0 0 0 0 0 0 0 0
0 0 0 0 0 0 0 0 0 0 0 0 0 0 0 0 0 0 0 0 0 0 0 0 0 0 0 0 0 0 0 0 0 0 0 0 0 0 0 0 0 0 0
0 0 0 0 0 0 0 0 0 0 0 0 0 0 0 0 0 0 0 0 0 0 0 0 0 0 0 0 0 0 0 0 0 0 0 0 0 0 0 0 0 0 0
0 0 0 0 0 0 0 0 0 0 0 0 0 0 0 0 0 0 0 0 0 0 0 0 0 0 0 0 0 0 0 0 0 0 0 0 0 0 0 0 0 0 0
0 0 0 0 0 0 0 0 0 0 0 0 0 0 0 0 0 0 0 0 0 0 0 0 0 0 0 0 0 0 0 0 0 0 0 0 0 0 0 0 0 0 0
1 2 0 0 0 0 0 0 0 0 0 0 0 0 0 0 0 0 0 0 0 0 0 0 0 0 0 0 0 0 0 0 0 0 0 0 0 0 0 0 0 0 0
7 7 0 0 0 0 0 0 0 0 0 0 0 0 0 0 0 0 0 0 0 0 0 0 0 0 0 0 0 0 0 0 0 0 0 0 0 0 0 0 0 0 0
CIN
-252 -223 -197 -181 -156 -140 -137 -126 -109 -82 -81 -73 -67 -71 -69 -71 -74 -68 -82 -61 -53 -38 -37 -32 -31 -38 -43 -40 -39 -39 -39 -42 -15 -27 -75 -78 -76 -87 -100 -139 -180 -84 -0
-281 -235 -226 -205 -196 -168 -151 -135 -119 -83 -80 -73 -71 -65 -66 -63 -59 -46 -49 -48 -51 -52 -42 -32 -27 -31 -33 -41 -40 -33 -31 -36 -27 -20 -54 -53 -59 -124 -140 -151 -193 -0 -0
-239 -235 -242 -211 -199 -183 -162 -138 -135 -111 -81 -83 -76 -82 -98 -98 -87 -73 -49 -39 -46 -41 -39 -39 -38 -31 -28 -29 -30 -31 -33 -39 -40 -32 -40 -61 -72 -110 -163 -141 -0 -0 -0
-261 -225 -221 -206 -175 -145 -143 -135 -121 -105 -97 -97 -123 -138 -142 -163 -153 -100 -92 -79 -63 -69 -68 -47 -38 -38 -35 -30 -27 -27 -30 -26 -27 -20 -25 -23 -32 -51 -78 -167 -0 -0 -0
-213 -197 -184 -189 -98 -142 -127 -96 -86 -102 -112 -99 -131 -188 -241 -0 -258 -185 -117 -96 -76 -74 -82 -80 -62 -42 -41 -38 -31 -32 -29 -21 -22 -16 -15 -17 -19 -32 -43 -124 -0 -0 -0
-192 -176 -194 -173 -121 -76 -83 -75 -78 -96 -128 -137 -130 -180 -266 -267 -0 -0 -244 -174 -173 -104 -85 -96 -87 -67 -51 -47 -59 -41 -40 -27 -20 -16 -15 -13 -23 -27 -46 -80 -36 -0 -0
-195 -169 -161 -144 -189 -218 -212 -158 -155 -162 -180 -135 -154 -184 -209 -217 -221 -62 -186 -0 -270 -219 -166 -117 -100 -67 -78 -51 -70 -63 -67 -61 -39 -25 -23 -34 -25 -48 -55 -53 -146 -0 -0
-192 -203 -216 -263 -155 -0 -356 -359 -157 -0 -0 -0 -0 -0 -0 -0 -0 -0 -0 -0 -0 -146 -78 -109 -90 -108 -78 -62 -37 -41 -52 -61 -82 -79 -45 -35 -39 -54 -60 -56 -94 -0 -0
-269 -323 -207 -74 -0 -0 -0 -0 -0 -0 -0 -0 -0 -0 -0 -0 -0 -0 -0 -0 -0 -0 -0 -158 -87 -102 -108 -69 -34 -46 -53 -63 -121 -103 -84 -80 -80 -92 -89 -107 -114 -0 -0
-0 -0 -0 -0 -0 -0 -0 -0 -0 -0 -0 -0 -0 -0 -0 -0 -0 -0 -0 -0 -0 -0 -0 -0 -90 -146 -103 -82 -46 -54 -74 -81 -103 -131 -182 -214 -194 -178 -0 -104 -161 -85 -0
-0 -0 -0 -0 -0 -0 -0 -0 -0 -0 -0 -0 -0 -0 -0 -0 -0 -0 -0 -0 -0 -0 -0 -0 -0 -0 -115 -138 -131 -66 -68 -64 -145 -144 -193 -101 -0 -0 -0 -0 -105 -88 -0
-0 -0 -0 -0 -0 -0 -0 -0 -0 -0 -0 -0 -0 -0 -0 -0 -0 -0 -0 -0 -0 -0 -0 -0 -0 -0 -130 -102 -93 -124 -104 -123 -57 -12 -0 -0 -0 -0 -0 -0 -0 -0 -0
-0 -0 -0 -0 -0 -0 -0 -0 -0 -0 -0 -0 -0 -0 -0 -0 -0 -0 -0 -0 -0 -0 -0 -0 -0 -0 -0 -81 -80 -84 -171 -148 -120 -23 -0 -0 -0 -0 -0 -0 -0 -0 -0
-0 -0 -0 -0 -0 -0 -0 -0 -0 -0 -0 -0 -0 -0 -0 -0 -0 -0 -0 -0 -0 -0 -0 -0 -0 -0 -0 -14 -104 -185 -0 -273 -234 -0 -0 -0 -0 -0 -0 -0 -0 -0 -0
-0 -0 -0 -0 -0 -0 -0 -0 -0 -0 -0 -0 -0 -0 -0 -0 -0 -0 -0 -0 -0 -0 -0 -0 -0 -0 -2 -0 -0 -0 -0 -0 -0 -0 -0 -0 -0 -0 -0 -0 -0 -0 -0
-0 -0 -0 -0 -0 -0 -0 -0 -0 -0 -0 -0 -0 -0 -0 -0 -0 -0 -0 -0 -0 -0 -0 -0 -0 -0 -0 -0 -0 -0 -0 -0 -0 -0 -0 -0 -0 -0 -0 -0 -0 -0 -0
-0 -0 -0 -0 -0 -0 -0 -0 -0 -0 -0 -0 -0 -0 -0 -0 -0 -0 -0 -0 -0 -0 -0 -0 -0 -0 -0 -0 -0 -0 -0 -0 -0 -0 -0 -0 -0 -0 -0 -0 -0 -0 -0
-0 -0 -0 -0 -0 -0 -0 -0 -0 -0 -0 -0 -0 -0 -0 -0 -0 -0 -0 -0 -0 -0 -0 -0 -0 -0 -0 -0 -0 -0 -0 -0 -0 -0 -0 -0 -0 -0 -0 -0 -0 -0 -0
-0 -0 -0 -0 -0 -0 -0 -0 -0 -0 -0 -0 -0 -0 -0 -0 -0 -0 -0 -0 -0 -0 -0 -0 -0 -0 -0 -0 -0 -0 -0 -0 -0 -0 -0 -0 -0 -0 -0 -0 -0 -0 -0
-0 -0 -0 -0 -0 -0 -0 -0 -0 -0 -0 -0 -0 -0 -0 -0 -0 -0 -0 -0 -0 -0 -0 -0 -0 -0 -0 -0 -0 -0 -0 -0 -0 -0 -0 -0 -0 -0 -0 -0 -0 -0 -0
-0 -0 -0 -0 -0 -0 -0 -0 -0 -0 -0 -0 -0 -0 -0 -0 -0 -0 -0 -0 -0 -0 -0 -0 -0 -0 -0 -0 -0 -0 -0 -0 -0 -0 -0 -0 -0 -0 -0 -0 -0 -0 -0
-0 -0 -0 -0 -0 -0 -0 -0 -0 -0 -0 -0 -0 -0 -0 -0 -0 -0 -0 -0 -0 -0 -0 -0 -0 -0 -0 -0 -0 -0 -0 -0 -0 -0 -0 -0 -0 -0 -0 -0 -0 -0 -0
-0 -0 -0 -0 -0 -0 -0 -0 -0 -0 -0 -0 -0 -0 -0 -0 -0 -0 -0 -0 -0 -0 -0 -0 -0 -0 -0 -0 -0 -0 -0 -0 -0 -0 -0 -0 -0 -0 -0 -0 -0 -0 -0
-0 -0 -0 -0 -0 -0 -0 -0 -0 -0 -0 -0 -0 -0 -0 -0 -0 -0 -0 -0 -0 -0 -0 -0 -0 -0 -0 -0 -0 -0 -0 -0 -0 -0 -0 -0 -0 -0 -0 -0 -0 -0 -0
-108 -131 -0 -0 -0 -0 -0 -0 -0 -0 -0 -0 -0 -0 -0 -0 -0 -0 -0 -0 -0 -0 -0 -0 -0 -0 -0 -0 -0 -0 -0 -0 -0 -0 -0 -0 -0 -0 -0 -0 -0 -0 -0
-90 -108 -31 -0 -0 -0 -0 -0 -0 -0 -0 -0 -0 -0 -0 -0 -0 -0 -0 -0 -0 -0 -0 -0 -0 -0 -0 -0 -0 -0 -0 -0 -0 -0 -0 -0 -0 -0 -0 -0 -0 -0 -0
Wind_Speed
11 7 5 6 9 7 6 5 8 15 17 20 24 25 25 28 28 30 30 32 34 35 32 33 34 31 31 26 20 16 11 9 12 19 18 19 15 12 13 13 11 10 11
9 8 8 5 5 7 6 5 6 6 10 10 12 16 22 26 29 30 31 29 30 32 33 34 35 32 32 29 23 19 15 12 11 12 18 17 15 13 12 11 10 9 9
7 8 8 7 5 7 6 6 7 7 9 11 14 14 19 24 26 28 29 31 32 30 30 29 33 32 32 29 25 23 21 18 15 16 17 19 16 14 14 12 9 10 10
9 8 8 9 7 6 9 8 10 9 8 9 8 11 23 24 26 28 28 30 31 33 33 31 30 30 32 30 29 27 25 24 20 18 19 18 17 16 11 10 9 11 8
9 10 7 10 14 15 15 11 9 7 6 8 9 12 10 30 31 29 29 31 34 35 34 33 34 32 31 29 28 29 26 25 24 21 21 20 18 17 12 12 11 9 9
8 6 7 12 17 21 21 12 10 9 8 12 17 25 22 18 27 36 22 38 39 38 38 36 34 34 34 33 30 29 27 27 26 24 25 22 19 17 17 14 13 12 14
8 8 6 7 14 18 16 14 16 18 21 22 26 30 32 29 28 30 30 25 39 41 41 38 37 36 35 32 31 31 28 25 23 25 25 24 26 21 18 16 14 13 16
11 9 4 5 7 11 14 16 18 20 23 26 30 34 37 39 38 38 37 35 34 34 40 36 37 40 37 32 32 32 30 28 25 25 25 28 25 23 18 16 15 15 16
10 7 3 3 6 9 9 15 20 22 25 28 32 35 38 41 43 45 44 41 40 41 39 38 33 43 38 28 30 33 34 30 27 25 26 28 29 25 20 18 17 15 18
8 2 4 7 8 9 12 16 19 21 25 29 32 33 36 41 43 45 44 42 47 46 40 34 30 30 34 33 33 30 34 30 29 29 30 30 29 26 20 22 19 18 18
4 2 4 7 8 10 13 16 19 23 27 31 34 36 38 40 43 44 43 38 36 42 41 38 35 32 32 32 29 30 29 32 28 30 30 28 25 23 21 21 19 17 17
1 2 6 7 8 10 14 17 21 25 28 30 33 37 39 41 42 43 43 38 31 31 32 35 38 40 32 31 29 29 28 23 22 23 23 21 15 19 21 22 20 15 15
4 6 8 9 11 14 16 20 22 25 27 30 34 39 43 42 42 42 43 39 30 25 27 32 35 37 39 30 26 25 22 21 22 19 19 17 14 10 10 13 10 13 7
7 8 9 10 12 15 16 18 21 24 27 31 35 40 44 45 43 42 41 36 27 25 26 27 27 27 30 30 23 21 18 17 15 13 12 9 8 8 10 10 9 9 7
6 8 9 9 10 13 16 18 21 23 25 30 35 39 43 44 41 42 39 36 27 23 27 23 21 21 21 22 20 17 15 12 12 9 7 7 7 7 8 8 9 9 8
6 6 6 7 10 13 15 18 20 22 25 28 33 37 41 40 39 37 35 31 23 16 15 16 16 15 15 14 13 11 9 8 7 6 5 4 5 4 4 6 8 8 7
4 4 5 7 10 12 14 17 19 22 24 29 35 39 39 39 39 35 32 30 25 22 18 15 12 9 7 7 6 5 6 5 3 3 1 2 2 2 3 5 7 8 7
2 4 5 7 9 11 12 15 17 21 24 28 34 38 39 39 39 38 33 29 27 26 21 20 14 11 7 3 2 1 2 2 2 3 3 3 2 3 3 4 6 7 9
2 3 4 6 8 10 12 13 15 19 22 24 28 33 38 40 39 38 37 34 30 27 23 21 18 14 12 11 8 8 7 6 7 8 7 7 6 6 5 6 7 11 9
1 2 2 4 6 8 10 12 14 16 19 21 23 27 32 36 38 39 38 37 34 30 29 27 24 23 19 16 13 16 16 13 13 11 11 11 11 9 8 7 6 8 7
4 3 2 3 4 5 8 11 14 15 15 17 19 21 24 28 31 34 35 38 40 39 34 29 28 25 26 21 21 20 17 20 14 17 12 11 8 5 5 6 9 8 7
4 4 3 2 4 6 7 9 11 11 13 15 16 17 17 20 23 24 26 28 30 31 30 32 34 33 32 27 21 17 14 12 11 13 10 13 14 14 13 11 8 8 8
6 6 5 5 6 7 5 5 8 9 11 12 14 14 15 15 14 15 18 20 19 20 20 21 23 23 23 23 22 23 22 21 20 17 16 15 14 11 10 9 9 8 7
6 5 4 4 4 3 3 5 8 7 9 11 10 10 10 11 11 12 14 16 17 18 18 19 20 21 21 21 20 20 19 18 17 16 14 13 11 10 9 8 7 6 6
6 5 5 5 3 2 3 2 4 6 7 7 6 7 7 7 8 9 10 11 12 13 14 15 16 16 16 16 17 17 18 17 16 15 13 12 12 12 11 10 8 7 7
5 5 5 4 2 1 1 2 2 3 2 4 7 8 8 9 8 7 7 8 8 8 9 10 11 13 14 14 14 14 14 13 13 13 12 12 11 11 11 10 9 7 7
Wind_Direction
188 199 218 193 190 202 215 241 283 292 292 292 290 292 293 291 291 289 287 285 282 278 282 280 276 283 284 296 309 318 330 329 325 323 327 328 339 345 348 358 10 11 17
215 212 203 266 233 197 217 232 262 267 298 299 300 302 301 298 293 290 291 293 291 286 281 282 280 285 285 289 298 303 311 314 317 319 324 327 334 336 337 345 355 13 17
213 222 224 238 255 256 251 268 278 266 293 302 304 302 302 299 298 293 293 292 289 288 287 288 286 287 288 292 295 300 304 309 310 311 316 320 325 330 331 334 340 340 353
254 242 235 240 245 261 286 292 295 293 279 277 270 295 299 297 296 295 294 292 289 286 285 286 289 288 287 289 291 293 298 301 306 306 309 313 316 320 325 322 321 325 339
250 265 230 273 280 290 295 304 306 289 263 270 277 296 277 295 291 294 296 292 288 285 284 284 284 287 287 288 289 290 293 295 297 299 302 305 307 310 307 312 310 316 321
244 231 271 287 290 290 294 310 318 319 314 311 310 312 313 307 300 282 298 291 282 283 283 283 285 285 285 285 286 286 287 289 291 291 293 295 298 301 303 300 302 302 305
249 269 270 286 294 296 302 309 316 317 316 315 312 309 307 309 304 297 297 302 282 281 282 282 283 284 284 286 286 285 284 282 282 286 287 288 292 294 295 293 290 287 298
262 268 272 282 297 300 309 310 319 320 319 318 314 310 305 300 297 296 296 294 291 288 282 281 281 279 280 282 285 285 286 284 281 279 282 286 289 293 289 284 284 293 302
251 267 273 283 302 314 335 321 322 323 323 320 316 312 307 299 296 292 292 291 289 285 285 284 284 274 278 279 280 285 286 284 286 282 281 283 286 288 287 286 281 279 290
229 234 298 311 322 328 332 330 331 331 328 323 320 323 318 306 301 296 294 292 284 283 284 283 279 277 278 278 279 284 285 282 282 282 284 285 287 289 285 281 278 273 284
218 296 319 343 337 337 343 341 338 333 331 325 320 322 322 318 308 302 299 296 291 285 282 280 279 277 275 277 275 277 285 286 283 283 283 287 291 292 290 289 285 273 275
280 339 345 343 349 352 347 343 339 336 333 330 325 325 328 328 321 310 303 301 294 285 281 281 278 276 277 277 278 277 282 284 291 288 284 287 297 294 314 311 301 283 283
324 342 340 349 352 348 345 341 342 342 339 333 330 328 328 332 329 320 311 307 301 289 282 280 278 275 273 274 276 280 278 279 284 285 285 292 313 329 339 351 0 349 344
334 349 356 358 351 349 352 354 353 348 342 338 335 331 328 328 329 325 320 318 312 303 294 286 277 270 267 270 273 279 279 278 278 282 293 309 332 336 344 357 10 2 6
357 354 355 0 2 5 6 4 2 2 359 349 345 340 335 332 336 327 326 322 320 315 304 296 284 272 262 263 269 274 280 278 275 281 288 304 321 334 351 9 23 34 47
344 351 13 22 16 15 9 7 8 9 10 7 358 354 346 342 335 334 341 345 350 350 347 312 294 276 264 260 257 265 277 279 277 278 296 301 307 342 9 31 43 45 78
11 55 40 26 28 18 17 13 10 12 15 6 1 356 350 349 354 356 357 1 3 8 9 4 332 311 283 267 263 266 277 287 289 313 321 338 11 18 60 73 65 64 57
13 68 43 42 37 31 23 15 9 7 2 359 3 6 6 5 6 12 11 18 19 23 30 28 5 354 3 3 319 355 35 49 32 34 38 36 46 72 64 59 60 65 76
110 64 51 41 34 23 16 14 9 6 5 2 6 15 17 18 16 21 27 31 32 30 28 22 22 22 27 37 62 54 59 68 79 74 72 76 78 72 73 72 82 87 70
202 96 44 13 13 10 11 9 3 357 356 1 7 15 24 28 24 26 30 40 43 39 42 42 42 53 52 49 53 71 76 77 78 80 79 83 89 81 82 69 51 60 33
254 274 309 341 4 16 1 355 350 352 358 356 3 18 29 32 34 43 53 56 58 61 53 50 52 54 61 63 70 72 72 80 79 81 72 77 69 15 10 40 63 48 53
245 254 270 313 337 338 345 353 355 360 359 358 359 10 32 40 45 61 65 68 73 79 91 83 77 81 84 79 68 65 61 54 50 73 60 76 85 92 88 84 51 57 64
244 253 266 292 313 326 345 1 359 2 2 360 3 19 29 43 66 84 79 88 113 116 121 117 112 114 120 123 126 123 117 118 112 98 96 90 85 72 69 72 71 62 55
227 237 243 268 300 317 339 342 341 359 358 0 21 33 34 55 75 90 102 103 111 121 125 119 111 103 103 107 109 106 96 88 86 91 88 78 65 60 56 57 55 48 33
200 221 254 269 279 302 341 16 1 353 354 10 39 45 65 100 98 98 106 93 78 75 82 83 87 91 91 90 91 98 97 95 88 80 83 83 87 92 92 86 75 57 37
213 233 253 255 256 268 121 97 57 22 61 129 153 154 149 145 130 111 101 91 84 68 57 55 58 64 68 68 74 81 84 83 81 79 82 93 94 91 94 91 86 63 42